EW5949 Weather Reports


Display with metric or nautical units.
time (UTC)temp
F
wind
direction
speed
MPH
gust
MPH
rain 1hr
in
rain 24hr
in
rain mn
in
humidity
%
barometer
mb
20191014081634 45 355 0.0 0.0 0.00 0.00 0.00 69 1016.5
20191014080255 45 355 0.0 0.0 0.00 0.00 0.00 65 1016.6
20191014074642 45 355 0.0 0.0 0.00 0.00 0.00 63 1016.5
20191014073148 45 355 0.0 0.0 0.00 0.00 0.00 64 1016.7
20191014071702 46 355 0.0 0.0 0.00 0.00 0.00 63 1016.6
20191014070116 46 355 0.0 0.0 0.00 0.00 0.00 63 1016.5
20191014064714 46 355 0.0 0.0 0.00 0.00 0.00 63 1016.4
20191014063148 46 355 0.0 0.0 0.00 0.00 0.00 62 1016.3
20191014061610 47 355 0.0 0.0 0.00 0.00 0.00 61 1016.0
20191014060115 47 355 0.0 0.0 0.00 0.00 0.00 61 1015.6
20191014054616 47 355 0.0 0.0 0.00 0.00 0.00 60 1015.7
20191014053148 48 355 0.0 6.0 0.00 0.00 0.00 60 1015.7
20191014051637 49 355 0.0 5.0 0.00 0.00 0.00 59 1015.6
20191014050050 50 355 0.0 0.0 0.00 0.00 0.00 58 1015.4
20191014044539 50 355 0.0 3.0 0.00 0.00 0.00 59 1015.3
20191014043044 51 355 0.0 1.0 0.00 0.00 0.00 57 1015.1
20191014041530 52 355 0.0 11.0 0.00 0.00 0.00 56 1015.0
20191014040036 53 355 1.0 13.0 0.00 0.00 0.00 56 1014.8
20191014034538 52 355 0.0 6.0 0.00 0.00 0.00 54 1014.6
20191014033039 52 355 0.0 0.0 0.00 0.00 0.00 53 1014.4
20191014031523 52 355 0.0 0.0 0.00 0.00 0.00 53 1014.3
20191014030054 53 355 0.0 3.0 0.00 0.00 0.00 52 1014.1
20191014024627 53 355 0.0 0.0 0.00 0.00 0.00 51 1014.0
20191014023025 54 355 0.0 1.0 0.00 0.00 0.00 50 1013.8
20191014021529 54 355 0.0 0.0 0.00 0.00 0.00 49 1013.7
20191014020027 55 355 0.0 3.0 0.00 0.00 0.00 48 1013.5
20191014014524 55 355 0.0 0.0 0.00 0.00 0.00 47 1013.5
20191014013035 56 355 0.0 0.0 0.00 0.00 0.00 46 1013.5
20191014011550 56 355 0.0 1.0 0.00 0.00 0.00 46 1013.4
20191014010023 57 355 0.0 2.0 0.00 0.00 0.00 45 1013.2
20191014004526 58 355 0.0 0.0 0.00 0.00 0.00 45 1013.0
20191014003038 59 355 0.0 2.0 0.00 0.00 0.00 44 1012.9
20191014001523 59 355 0.0 0.0 0.00 0.00 0.00 43 1012.5
20191013234513 61 355 0.0 3.0 0.00 0.00 0.00 42 1012.0
20191013233009 62 355 0.0 5.0 0.00 0.00 0.00 40 1011.9
20191013231532 63 355 2.0 9.0 0.00 0.00 0.00 38 1011.7
20191013230007 63 355 4.0 9.0 0.00 0.00 0.00 37 1011.6
20191013224531 64 355 2.0 10.0 0.00 0.00 0.00 37 1011.7
20191013223011 64 355 2.0 9.0 0.00 0.00 0.00 36 1011.5
20191013221705 64 355 2.0 18.0 0.00 0.00 0.00 36 1011.5
20191013220253 64 355 5.0 14.0 0.00 0.00 0.00 37 1011.4
20191013214735 64 355 5.0 16.0 0.00 0.00 0.00 36 1011.4
20191013213145 64 355 2.0 11.0 0.00 0.00 0.00 36 1011.3
20191013211650 64 355 4.0 13.0 0.00 0.00 0.00 37 1011.2
20191013210226 64 355 4.0 12.0 0.00 0.00 0.00 36 1011.2
20191013204724 63 355 7.0 14.0 0.00 0.00 0.00 32 1011.2
20191013203154 63 355 6.0 14.0 0.00 0.00 0.00 33 1011.4
20191013201712 63 355 5.0 14.0 0.00 0.00 0.00 34 1011.5
20191013200204 63 355 7.0 15.0 0.00 0.00 0.00 34 1011.6
20191013194659 62 355 5.0 16.0 0.00 0.00 0.00 33 1011.7
20191013193208 62 355 2.0 13.0 0.00 0.00 0.00 35 1011.8
20191013191619 62 355 4.0 16.0 0.00 0.00 0.00 36 1012.0
20191013190132 61 355 4.0 12.0 0.00 0.00 0.00 35 1012.1
20191013184703 61 355 5.0 12.0 0.00 0.00 0.00 36 1012.3
20191013183104 60 355 5.0 12.0 0.00 0.00 0.00 39 1012.4
20191013181616 60 355 6.0 13.0 0.00 0.00 0.00 39 1012.6
20191013180144 59 355 1.0 14.0 0.00 0.00 0.00 42 1012.8
20191013174542 59 355 4.0 14.0 0.00 0.00 0.00 46 1012.9
20191013173043 58 355 3.0 15.0 0.00 0.00 0.00 47 1013.0
20191013171524 57 355 4.0 11.0 0.00 0.00 0.00 52 1013.1
20191013170022 56 355 0.0 10.0 0.00 0.00 0.00 59 1013.2
20191013164520 56 355 0.0 9.0 0.00 0.00 0.00 61 1013.3
20191013163013 55 355 0.0 9.0 0.00 0.00 0.00 64 1013.4
20191013161724 54 355 2.0 10.0 0.00 0.00 0.00 62 1013.5
20191013160255 53 355 0.0 9.0 0.00 0.00 0.00 66 1013.6
20191013154706 52 355 1.0 10.0 0.00 0.00 0.00 66 1013.8
20191013153133 51 355 0.0 4.0 0.00 0.00 0.00 68 1013.7
20191013151625 51 355 1.0 12.0 0.00 0.00 0.00 68 1013.9
20191013150133 50 355 5.0 11.0 0.00 0.00 0.00 68 1013.9
20191013144541 49 355 6.0 13.0 0.00 0.00 0.00 70 1013.8
20191013143056 49 355 2.0 10.0 0.00 0.00 0.00 72 1014.0
20191013141601 48 355 0.0 10.0 0.00 0.00 0.00 72 1014.1
20191013140027 48 355 0.0 11.0 0.00 0.00 0.00 73 1014.0
20191013134559 47 355 2.0 9.0 0.00 0.00 0.00 74 1014.0
20191013133012 47 355 3.0 13.0 0.00 0.00 0.00 72 1014.0
20191013131524 47 355 0.0 12.0 0.00 0.00 0.00 74 1013.9
20191013130004 46 355 1.0 4.0 0.00 0.00 0.00 75 1013.7
20191013124839 46 355 0.0 9.0 0.00 0.00 0.00 76 1013.5
20191013123213 46 355 0.0 11.0 0.00 0.00 0.00 76 1013.3
20191013121643 46 355 0.0 2.0 0.00 0.00 0.00 77 1013.2
20191013120119 46 355 0.0 9.0 0.00 0.00 0.00 77 1013.2
20191013114657 46 355 1.0 6.0 0.00 0.00 0.00 78 1013.3
20191013113149 46 355 0.0 3.0 0.00 0.00 0.00 78 1013.3
20191013111720 46 355 0.0 2.0 0.00 0.00 0.00 78 1013.1
20191013110116 46 355 0.0 5.0 0.00 0.00 0.00 77 1012.9
20191013104614 46 355 0.0 5.0 0.00 0.00 0.00 77 1012.9
20191013103136 46 355 0.0 1.0 0.00 0.00 0.00 77 1012.7
20191013101557 46 355 0.0 9.0 0.00 0.00 0.00 76 1012.6
20191013100054 47 355 0.0 3.0 0.00 0.00 0.00 76 1012.5
20191013094634 47 355 0.0 2.0 0.00 0.00 0.00 75 1012.6
20191013093055 47 355 0.0 4.0 0.00 0.00 0.00 74 1012.6
20191013091558 48 355 0.0 2.0 0.00 0.00 0.00 74 1012.7
20191013090058 48 355 0.0 1.0 0.00 0.00 0.00 73 1012.7
20191013084549 48 355 0.0 11.0 0.00 0.00 0.00 74 1012.7
20191013083108 48 355 2.0 11.0 0.00 0.00 0.00 73 1012.7